CAPE
34 32 34 27 11 24 29 10 35 29 17 6 7 4 6 5 4 5 5 3 71 34
36 33 37 25 26 19 11 39 32 20 17 7 7 4 6 4 3 3 7 5 3 71
29 31 40 36 17 42 39 26 33 21 13 4 9 8 5 6 4 3 6 3 1 34
39 38 35 46 37 19 31 7 34 27 15 5 8 9 11 5 5 3 7 4 3 3
27 38 47 39 44 33 28 16 21 22 18 13 8 9 6 7 8 7 7 4 1 2
20 38 31 45 56 32 21 27 16 16 14 8 8 9 7 10 6 6 8 7 5 3
24 19 27 12 42 43 23 23 15 15 14 9 7 8 7 10 8 7 4 7 8 6
18 33 28 34 36 35 11 21 9 11 14 17 4 2 6 10 7 4 5 3 1 2
12 17 29 14 18 15 17 8 9 5 10 12 3 0 0 0 11 7 4 3 2 0
7 20 6 11 15 8 6 4 6 5 4 8 4 0 0 0 9 8 6 4 3 1
2 13 8 17 13 8 3 0 1 3 4 5 0 0 0 0 6 6 7 5 3 3
2 14 12 11 10 7 1 0 0 0 1 2 5 0 0 0 9 7 5 2 1 1
2 9 11 7 3 1 0 0 0 0 0 0 2 0 0 0 1 4 2 2 0 0
0 13 10 6 3 0 0 0 0 0 0 0 0 0 0 0 0 0 0 0 0 0
CIN
-0 -0 -0 -0 -1 -0 -0 -0 -0 -0 -0 -0 -0 -0 -0 -0 -0 -0 -0 -0 -0 -0
-0 -0 -0 -0 -0 -0 -0 -0 -0 -0 -0 -0 -0 -0 -0 -0 -0 -0 -0 -0 -7 -0
-0 -0 -0 -0 -0 -0 -0 -0 -0 -0 -0 -0 -0 -0 -0 -0 -0 -0 -0 -0 -0 -17
-0 -0 -0 -0 -0 -0 -0 -2 -0 -0 -0 -0 -0 -0 -0 -0 -0 -0 -0 -0 -0 -0
-0 -0 -0 -0 -0 -0 -0 -0 -0 -0 -0 -0 -0 -0 -0 -0 -0 -0 -0 -0 -0 -0
-0 -0 -0 -0 -0 -0 -0 -0 -0 -0 -0 -0 -0 -0 -0 -0 -0 -0 -0 -0 -0 -0
-0 -0 -0 -0 -0 -0 -0 -0 -0 -0 -0 -0 -0 -0 -0 -0 -0 -0 -0 -0 -0 -0
-0 -0 -0 -0 -0 -0 -0 -0 -0 -0 -0 -0 -0 -0 -0 -0 -0 -0 -0 -0 -0 -0
-0 -0 -0 -0 -0 -0 -0 -0 -0 -0 -0 -0 -0 -0 -0 -0 -0 -0 -0 -0 -0 -0
-0 -0 -0 -0 -0 -0 -0 -0 -0 -0 -0 -0 -0 -0 -0 -0 -0 -0 -0 -0 -0 -0
-0 -0 -0 -0 -0 -0 -0 -0 -0 -0 -0 -0 -0 -0 -0 -0 -0 -0 -0 -0 -0 -0
-0 -0 -0 -0 -0 -0 -0 -0 -0 -0 -0 -0 -0 -0 -0 -0 -0 -0 -0 -0 -0 -0
-0 -0 -0 -0 -0 -0 -0 -0 -0 -0 -0 -0 -0 -0 -0 -0 -0 -0 -0 -0 -0 -0
-0 -0 -0 -0 -0 -0 -0 -0 -0 -0 -0 -0 -0 -0 -0 -0 -0 -0 -0 -0 -0 -0
Wind_Speed
11 8 8 9 10 8 8 8 11 9 9 9 10 9 10 6 7 9 7 5 6 4
9 9 9 9 8 8 8 8 9 9 10 11 11 10 11 6 8 9 8 5 1 3
9 8 9 9 10 9 9 9 9 9 9 11 11 10 9 8 7 8 7 4 7 5
7 7 7 7 8 8 8 9 10 11 10 10 12 13 11 10 10 10 8 6 9 9
7 9 9 8 7 6 7 8 10 10 10 11 12 11 11 10 8 9 10 11 11 12
5 7 8 9 9 6 9 10 11 11 10 10 10 12 10 10 10 9 10 11 11 10
6 6 6 7 9 9 10 11 11 11 11 10 11 12 12 10 10 10 10 11 10 10
6 5 5 6 6 9 9 10 10 10 10 10 11 11 13 10 9 9 9 9 9 10
6 5 5 6 6 6 8 9 9 10 10 11 9 18 16 12 8 10 11 9 10 9
6 5 4 4 5 7 7 8 8 9 9 9 12 17 16 14 8 9 10 10 9 9
5 5 2 3 5 5 6 6 6 7 9 8 10 18 17 18 7 7 9 11 11 10
5 5 2 2 4 5 5 5 5 6 7 9 9 16 17 17 5 5 7 8 14 13
5 4 3 3 3 3 4 4 3 4 5 5 7 14 16 16 5 6 4 6 8 19
6 6 4 3 3 3 2 2 3 3 3 4 7 9 12 16 5 5 4 5 6 8
Wind_Direction
333 328 323 353 325 337 353 325 347 348 343 344 325 345 335 332 335 329 317 279 179 187
329 332 330 335 326 356 328 345 355 355 345 346 346 353 330 318 1 323 317 333 42 220
326 330 331 343 359 340 353 355 340 357 356 353 357 349 336 344 331 350 330 357 20 281
333 335 341 340 1 352 352 355 351 1 2 2 4 357 353 350 349 1 315 36 34 9
350 348 0 355 11 16 355 7 352 11 13 15 10 2 350 356 2 12 358 19 58 16
0 13 355 2 20 351 0 8 11 14 22 18 17 11 3 4 8 19 13 31 45 40
20 51 3 1 354 8 6 11 12 10 19 17 20 14 12 16 15 18 34 24 34 34
3 24 9 22 5 23 359 7 10 10 16 20 29 14 3 10 18 26 34 32 28 28
348 13 354 21 18 15 7 9 13 16 13 22 34 357 357 349 21 31 29 21 25 19
342 21 335 4 3 11 11 4 8 16 11 17 27 7 356 340 27 34 32 23 20 22
326 346 340 347 7 4 8 9 16 17 12 14 34 7 358 338 33 38 38 35 17 21
305 323 302 348 359 356 356 19 21 31 25 6 37 11 359 338 51 56 52 51 42 20
273 277 291 317 346 358 350 7 10 37 38 65 25 34 6 349 9 32 42 51 50 43
268 268 273 270 297 313 337 328 341 352 52 54 43 65 28 6 17 18 32 33 39 42